Location: Il Ritiro
(43.4167°N, 13.1333°E)
Time: 01:38:24
(UTC+00:00)

Gbstr 26 Del rocket - Pass Details

Date: 05 July 2020
Orbit: 492 x 1264 km, 51.8° (Epoch: 11 August)

Event Time Altitude Azimuth Distance (km) Brightness Sun altitude
Exits shadow 22:49:27 31° 73° (ENE) 944 4.0 -23.7°
Drops below altitude 10° 22:51:46 10° 62° (ENE) 1,838 5.7 -23.8°
Sets 22:54:11 0° 59° (ENE) 2,826 6.8 -23.8°
